Regional Weather Roundup
Issued by NWS Portland, ME

Home | Current Version | Previous Version | Text Only | Print | Product List | Glossary On
Versions: 1 2 3 4 5 6 7 8 9 10 11 12 13 14 15 16 17 18 19 20 21 22 23 24 25 26 27 28 29 30 31 32 33 34 35 36 37 38 39 40 41 42 43 44 45 46 47 48 49 50
000
ASUS41 KGYX 280710
RWRGYX
WEATHER ROUNDUP FOR MAINE AND NEW HAMPSHIRE
NATIONAL WEATHER SERVICE GRAY ME
200 AM EST TUE FEB 28 2017

MEZ002-005-006-010-012-015-018-020-021-024-026-027-029-280800-
MAINE

CITY           SKY/WX    TMP DP  RH WIND       PRES   REMARKS
PORTLAND       CLEAR     38  20  48 SW7       30.34R
SANFORD        CLEAR     30  24  78 CALM      30.35R
BAR HARBOR     CLOUDY    32  30  92 CALM      30.34R
WISCASSET      CLEAR     34  24  67 CALM      30.34R
ROCKLAND       PTCLDY    33  28  81 CALM      30.32S
FRYEBURG       PTCLDY    34  24  67 CALM      30.31R
LEWISTONAUBURN PTCLDY    37  23  56 S3        30.31S
AUGUSTA        PTCLDY    38  22  52 NW3       30.32R
WATERVILLE     MOCLDY    29  25  85 N3        30.29S
BANGOR         PTCLDY    27  23  85 CALM      30.33R
GREENVILLE       N/A     30  23  75 N7        30.24R
MILLINOCKET    CLOUDY    27  21  78 N3        30.32R
HOULTON        CLEAR     23  13  65 CALM      30.31R
PRESQUE ISLE   CLEAR     16  12  84 CALM      30.33R
FRENCHVILLE    CLEAR     14   5  67 W6        30.27R
CARIBOU        CLEAR     16   7  67 CALM      30.30R
$$

NHZ002-005-008-009-011-012-014-280800-
NEW HAMPSHIRE

CITY           SKY/WX    TMP DP  RH WIND       PRES   REMARKS
PORTSMOUTH     CLEAR     39  24  54 SW7       30.34R
ROCHESTER      CLEAR     36  21  54 CALM      30.34R
NASHUA         CLEAR     30  26  85 CALM      30.37R
MANCHESTER     PTCLDY    36  22  56 S3        30.34S
CONCORD        CLEAR     27  22  81 SE3       30.34S
LACONIA        CLEAR     37  21  52 W6        30.32R
PLYMOUTH       MOCLDY    26  25  95 CALM      30.32S
BERLIN         CLEAR     25  21  85 CALM      30.28R
WHITEFIELD     CLEAR     27  22  81 CALM      30.30R
JAFFREY        CLEAR     27  23  85 CALM      30.34S
KEENE          CLEAR     27  23  85 S3        30.36S
LEBANON        CLEAR     26  23  88 CALM      30.33R
MT WASHINGTON  FOG       16  16 100 W63         N/A  VSB 0   WCI -11
$$

VTZ005-007-008-280800-
VERMONT

CITY           SKY/WX    TMP DP  RH WIND       PRES   REMARKS
ST JOHNSBURY     N/A     28  25  88 MISG      30.30R
MONTPELIER     CLOUDY    37  26  64 VRB5      30.33R
BURLINGTON     CLOUDY    32  26  78 CALM      30.33R
$$

MAZ007-012-024-CTZ003-RIZ002-NYZ038-NYZ072-280800-
SOUTHERN NEW ENGLAND AND NY

CITY           SKY/WX    TMP DP  RH WIND       PRES   REMARKS
BOSTON         CLEAR     39  32  76 SW12      30.38S
WORCESTER      MOCLDY    35  25  66 W7        30.35R
NANTUCKET      PTCLDY    43  38  82 W9        30.42S
PROVIDENCE     CLEAR     35  31  85 CALM      30.40S
HARTFORD       CLOUDY    38  33  82 S10       30.38S
ALBANY         CLOUDY    33  22  63 CALM      30.36R
NEW YORK CITY  CLOUDY    50  31  48 S3        30.37F
$$

ANZ081-ANZ082-ANZ150-NHZ014-MEZ023>029-280800-
COASTAL MARINE OBSERVATIONS

STATION/POSITION TIME  TEMP    WIND        PRES    WAVE
                       AIR SEA DIR/SP/G            HT/PER
                 (UTC) (F)     (DEG/KT/KT) (MB)    (FT/S)
MOUNT DESERT ROC 0700   42                 1026.8F
MATINICUS ROCK   0600   43     250/ 21/ 22 1026.2R
ISLE OF SHOALS   0600   42     220/ 16/ 17 1027.4R
JEFFREYS LEDGE   0606      43                N/A     4/ 6
CASHES LEDGE BUO 0650   42 42              1027.4R   6/ 7
GEORGES BANK BUO 0550   45 43              1031.1    5/ 8
$$

.............KEY..............
   WCI - WIND CHILL
   TC  - TEMPERATURE IN CELSIUS
   VSB - VISIBILITY IN MILES
   HX  - HEAT INDEX
   FAIR- INDICATES FEW OR NO CLOUDS BELOW 12,000 FT, WITH NO
         SIGNIFICANT WEATHER AND/OR OBSTRUCTIONS TO VISIBILITY.






USA.gov is the U.S. government's official web portal to all federal, state and local government web resources and services.